Weather in Kharsaim

Russia / Yamalo-Nenets Autonomous Okrug     66°35′57″N   67°17′42″E
temp.,
°C
wind,
m/s
gust,
m/s
humid.,
%
clouds,
%
prec.,
mm/h
press.,
hPa
HPBL,
m
27 february, sat
sat2723:00−25ssw229948 0.0 102120
02:00−26ssw229920 0.0 102119
05:00−26ssw229912 0.0 102219
08:00−27sw23990 0.0 102119
11:00−24ssw34970 0.0 1022105
14:00−22sw34960 0.0 1022172
17:00−24ssw23980 0.0 102220
20:00−25ssw3310037 0.0 102122
28 february, sun
sun2823:00−26ssw3410061 0.0 102141
02:00−26ssw3410096 0.0 102039
05:00−27ssw4410096 0.0 102152
08:00−28ssw4410082 0.0 102060
11:00−26ssw589788 0.0 1020241
14:00−24ssw589593 0.0 1020307
17:00−25ssw449789 0.0 102061
20:00−27ssw449896 0.0 101956
1 march, mon
mon123:00−28ssw449591 0.0 102064
02:00−28ssw459791 0.0 101878
05:00−28ssw479895 0.0 1018109
08:00−28ssw5999100 0.0 1017148
11:00−26sw61098100 0.1 1016302
14:00−23ssw6109799 0.0 1013384
17:00−23ssw51098100 0.1 1012257
20:00−24ssw61198100 0.0 1010208
2 march, tue
tue223:00−23ssw61397100 0.1 1008261
02:00−21ssw71397100 0.1 1006337
05:00−20ssw81395100 0.1 1004411
08:00−19s81495100 0.1 1003445
11:00−17ssw81395100 0.7 1003507
14:00−16ssw81393100 0.4 1003537
17:00−15ssw71394100 0.7 1003597
20:00−14ssw71394100 0.4 1002623
3 march, wed
wed323:00−14ssw71294100 1.0 1002589
02:00−15s71294100 0.4 1002486
05:00−16s71295100 0.7 1002459
08:00−16s61195100 0.4 1001448
11:00−15s71094100 0.8 1002499
14:00−14s6994100 0.3 1002592
17:00−14s5995100 0.7 1002476
20:00−14s5995100 0.4 1001384